Powrót do katalogu

COSMOS 2095

AktywnyMilitariaPO
NORAD 20740·PAYLOAD·🇷🇺 Russia

Wystrzelony Aug 8, 1990 z Plesetsk Cosmodrome

Loading…

Następne Przeloty (najbliższe 24 godziny)

TLE

ŚwieżeSource: Space-Track

Epoka: Sep 14, 2026, 06:36 UTC

1 20740U 90070F   26257.27546425  .00000020  00000-0  47469-4 0  9992
2 20740  82.5739 210.2199 0019327 169.1998 354.4235 12.66143385668306

Śledź COSMOS 2095 w czasie rzeczywistym z AllMySat

Download on the App Store